SJV534 WIII-WAFF

Flight info

Callsign SJV534
Flight time 2h 15m
Altitude 35000
Route EGUKO T9 ELAPA
Aircraft A320/M-SDE3FGHIRWY/LB1

Departure

Time 2026-04-23 02:17
Airport Soekarno-Hatta International Airport (WIII)

Arrival

Time 2026-04-23 04:32
Airport Mutiara - SIS Al-Jufrie Airport (WAFF)
Time Latitude Longitude Altitude Speed Heading
2026-04-23 01:45 -6.11948 106.65181 39 ft 0 kts 194°
2026-04-23 02:04 -6.11945 106.65182 38 ft 2 kts 194°
2026-04-23 02:05 -6.11929 106.65186 34 ft 2 kts 194°
2026-04-23 02:05 -6.11913 106.65189 36 ft 2 kts 192°
2026-04-23 02:05 -6.11897 106.65193 36 ft 2 kts 191°
2026-04-23 02:05 -6.11880 106.65196 37 ft 2 kts 193°
2026-04-23 02:06 -6.11866 106.65201 36 ft 1 kts 258°
2026-04-23 02:06 -6.11865 106.65202 36 ft 0 kts 265°
2026-04-23 02:08 -6.11864 106.65214 38 ft 2 kts 259°
2026-04-23 02:11 -6.11866 106.65204 38 ft 4 kts 256°
2026-04-23 02:11 -6.11885 106.65153 38 ft 11 kts 248°
2026-04-23 02:11 -6.11908 106.65095 38 ft 5 kts 248°
2026-04-23 02:11 -6.11924 106.65049 38 ft 9 kts 262°
2026-04-23 02:12 -6.11886 106.65002 39 ft 10 kts 336°
2026-04-23 02:12 -6.11872 106.64944 38 ft 10 kts 252°
2026-04-23 02:12 -6.11903 106.64868 37 ft 14 kts 248°
2026-04-23 02:12 -6.11940 106.64775 39 ft 15 kts 248°
2026-04-23 02:13 -6.11980 106.64672 39 ft 17 kts 249°
2026-04-23 02:13 -6.12024 106.64557 38 ft 18 kts 246°
2026-04-23 02:13 -6.12076 106.64433 38 ft 20 kts 248°
2026-04-23 02:13 -6.12130 106.64296 39 ft 22 kts 248°
2026-04-23 02:14 -6.12189 106.64149 39 ft 24 kts 248°
2026-04-23 02:14 -6.12249 106.63998 37 ft 19 kts 249°
2026-04-23 02:14 -6.12207 106.63894 41 ft 12 kts 336°
2026-04-23 02:14 -6.12131 106.63907 41 ft 8 kts 16°
2026-04-23 02:15 -6.12078 106.63938 40 ft 0 kts 69°
2026-04-23 02:16 -6.12004 106.64125 41 ft 62 kts 67°
2026-04-23 02:16 -6.11769 106.64715 41 ft 117 kts 68°
2026-04-23 02:16 -6.11409 106.65621 41 ft 161 kts 68°
2026-04-23 02:17 -6.10978 106.66680 513 ft 162 kts 71°
2026-04-23 02:17 -6.10567 106.67733 1063 ft 163 kts 68°
2026-04-23 02:17 -6.09943 106.68700 1560 ft 170 kts 49°
2026-04-23 02:17 -6.09083 106.69587 1824 ft 189 kts 46°
2026-04-23 02:18 -6.08083 106.70573 2002 ft 214 kts 45°
2026-04-23 02:18 -6.06955 106.71700 2176 ft 244 kts 46°
2026-04-23 02:18 -6.05717 106.72950 2710 ft 257 kts 46°
2026-04-23 02:18 -6.04448 106.74244 3485 ft 261 kts 46°
2026-04-23 02:19 -6.03166 106.75558 4301 ft 265 kts 45°
2026-04-23 02:19 -6.01879 106.76881 4926 ft 270 kts 45°
2026-04-23 02:19 -6.00546 106.78255 5718 ft 273 kts 45°
2026-04-23 02:19 -5.99226 106.79619 6434 ft 278 kts 45°
2026-04-23 02:20 -5.97865 106.81026 7113 ft 282 kts 45°
2026-04-23 02:20 -5.96498 106.82452 7807 ft 286 kts 48°
2026-04-23 02:20 -5.95399 106.84125 8460 ft 290 kts 61°
2026-04-23 02:20 -5.94419 106.85922 9147 ft 294 kts 61°
2026-04-23 02:21 -5.93431 106.87735 9810 ft 298 kts 61°
2026-04-23 02:21 -5.92425 106.89580 10280 ft 309 kts 60°
2026-04-23 02:21 -5.91353 106.91538 10404 ft 330 kts 60°
2026-04-23 02:21 -5.90208 106.93619 10527 ft 350 kts 61°
2026-04-23 02:22 -5.89009 106.95801 10792 ft 363 kts 61°
2026-04-23 02:22 -5.87780 106.98037 11289 ft 367 kts 61°
2026-04-23 02:22 -5.86542 107.00293 11839 ft 370 kts 61°
2026-04-23 02:22 -5.85296 107.02566 12394 ft 373 kts 61°
2026-04-23 02:23 -5.84039 107.04856 12947 ft 376 kts 61°
2026-04-23 02:23 -5.83612 107.05633 13131 ft 377 kts 61°
2026-04-23 02:23 -5.83558 107.05731 13153 ft 377 kts 61°
2026-04-23 02:24 -5.83069 107.06625 13304 ft 379 kts 61°
2026-04-23 02:24 -5.81798 107.08941 13864 ft 381 kts 61°
2026-04-23 02:24 -5.80509 107.11282 14343 ft 384 kts 61°
2026-04-23 02:24 -5.79213 107.13626 14820 ft 386 kts 61°
2026-04-23 02:25 -5.77919 107.15966 15290 ft 389 kts 61°
2026-04-23 02:25 -5.76591 107.18375 15778 ft 391 kts 61°
2026-04-23 02:25 -5.75285 107.20746 16237 ft 394 kts 60°
2026-04-23 02:25 -5.73954 107.23161 16734 ft 397 kts 60°
2026-04-23 02:26 -5.72612 107.25595 17220 ft 400 kts 60°
2026-04-23 02:26 -5.71261 107.28046 17720 ft 402 kts 60°
2026-04-23 02:26 -5.69903 107.30511 18193 ft 405 kts 60°
2026-04-23 02:26 -5.68537 107.32995 18614 ft 408 kts 61°
2026-04-23 02:27 -5.67165 107.35493 19055 ft 410 kts 61°
2026-04-23 02:27 -5.65782 107.38012 19489 ft 412 kts 61°
2026-04-23 02:27 -5.64396 107.40541 19934 ft 415 kts 61°
2026-04-23 02:27 -5.62999 107.43086 20359 ft 417 kts 61°
2026-04-23 02:28 -5.61592 107.45644 20773 ft 419 kts 61°
2026-04-23 02:28 -5.60179 107.48211 21172 ft 422 kts 61°
2026-04-23 02:28 -5.58758 107.50792 21572 ft 424 kts 61°
2026-04-23 02:28 -5.57328 107.53387 21955 ft 426 kts 61°
2026-04-23 02:29 -5.55891 107.55996 22324 ft 428 kts 61°
2026-04-23 02:29 -5.54443 107.58620 22680 ft 430 kts 61°
2026-04-23 02:29 -5.52991 107.61254 23026 ft 432 kts 61°
2026-04-23 02:29 -5.51531 107.63898 23356 ft 435 kts 61°
2026-04-23 02:30 -5.50061 107.66560 23645 ft 437 kts 61°
2026-04-23 02:30 -5.48590 107.69232 23915 ft 438 kts 61°
2026-04-23 02:30 -5.47116 107.71917 24196 ft 440 kts 61°
2026-04-23 02:30 -5.45636 107.74612 24459 ft 442 kts 61°
2026-04-23 02:31 -5.44146 107.77323 24718 ft 444 kts 61°
2026-04-23 02:31 -5.42537 107.79967 24984 ft 446 kts 55°
2026-04-23 02:31 -5.40742 107.82517 25242 ft 447 kts 55°
2026-04-23 02:31 -5.38947 107.85069 25500 ft 449 kts 55°
2026-04-23 02:32 -5.37149 107.87633 25758 ft 451 kts 55°
2026-04-23 02:32 -5.35339 107.90219 26008 ft 452 kts 55°
2026-04-23 02:32 -5.33547 107.92769 26249 ft 454 kts 55°
2026-04-23 02:32 -5.31728 107.95356 26490 ft 455 kts 55°
2026-04-23 02:33 -5.29900 107.97960 26741 ft 457 kts 55°
2026-04-23 02:33 -5.28072 108.00571 26987 ft 458 kts 55°
2026-04-23 02:33 -5.26237 108.03193 27226 ft 460 kts 55°
2026-04-23 02:33 -5.24400 108.05811 27581 ft 458 kts 55°
2026-04-23 02:34 -5.22564 108.08426 27948 ft 457 kts 55°
2026-04-23 02:34 -5.20734 108.11029 28313 ft 456 kts 55°
2026-04-23 02:34 -5.18910 108.13622 28684 ft 455 kts 55°
2026-04-23 02:34 -5.17087 108.16218 29063 ft 454 kts 55°
2026-04-23 02:35 -5.15278 108.18801 29447 ft 453 kts 55°
2026-04-23 02:35 -5.13469 108.21383 29851 ft 452 kts 55°
2026-04-23 02:35 -5.11661 108.23962 30204 ft 451 kts 55°
2026-04-23 02:35 -5.09859 108.26529 30525 ft 450 kts 55°
2026-04-23 02:36 -5.08057 108.29094 30849 ft 450 kts 55°
2026-04-23 02:36 -5.06254 108.31660 31174 ft 449 kts 55°
2026-04-23 02:36 -5.04457 108.34222 31499 ft 449 kts 55°
2026-04-23 02:36 -5.02659 108.36781 31830 ft 448 kts 55°
2026-04-23 02:37 -5.00861 108.39339 32168 ft 448 kts 55°
2026-04-23 02:37 -4.99067 108.41890 32493 ft 448 kts 55°
2026-04-23 02:37 -4.97276 108.44439 32825 ft 447 kts 55°
2026-04-23 02:37 -4.95483 108.46989 33138 ft 448 kts 55°
2026-04-23 02:38 -4.93691 108.49537 33438 ft 448 kts 55°
2026-04-23 02:38 -4.91918 108.52061 33735 ft 448 kts 55°
2026-04-23 02:38 -4.90122 108.54622 34008 ft 448 kts 55°
2026-04-23 02:38 -4.88333 108.57174 34286 ft 448 kts 55°
2026-04-23 02:39 -4.86542 108.59725 34566 ft 447 kts 55°
2026-04-23 02:39 -4.84753 108.62268 34822 ft 447 kts 55°
2026-04-23 02:39 -4.82960 108.64816 34896 ft 449 kts 55°
2026-04-23 02:40 -4.79316 108.69994 34907 ft 458 kts 55°
2026-04-23 02:40 -4.75627 108.75228 34905 ft 459 kts 55°
2026-04-23 02:41 -4.71954 108.80473 34904 ft 459 kts 57°
2026-04-23 02:41 -4.69024 108.86143 34906 ft 459 kts 65°
2026-04-23 02:42 -4.66290 108.91923 34905 ft 459 kts 65°
2026-04-23 02:42 -4.63535 108.97704 34913 ft 460 kts 64°
2026-04-23 02:43 -4.60774 109.03484 34916 ft 460 kts 65°
2026-04-23 02:43 -4.58026 109.09267 34917 ft 460 kts 65°
2026-04-23 02:44 -4.55267 109.15063 34921 ft 460 kts 65°
2026-04-23 02:44 -4.52511 109.20851 34923 ft 460 kts 65°
2026-04-23 02:45 -4.50220 109.25659 34925 ft 460 kts 65°
2026-04-23 02:45 -4.47458 109.31439 34926 ft 460 kts 65°
2026-04-23 02:46 -4.44703 109.37229 34928 ft 460 kts 65°
2026-04-23 02:46 -4.41958 109.43012 34928 ft 459 kts 65°
2026-04-23 02:47 -4.38757 109.49732 34927 ft 459 kts 65°
2026-04-23 02:47 -4.36456 109.54560 34929 ft 459 kts 65°
2026-04-23 02:48 -4.33701 109.60329 34927 ft 458 kts 65°
2026-04-23 02:48 -4.30950 109.66091 34927 ft 458 kts 64°
2026-04-23 02:49 -4.28204 109.71839 34924 ft 457 kts 64°
2026-04-23 02:49 -4.25482 109.77560 34922 ft 457 kts 64°
2026-04-23 02:50 -4.22741 109.83311 34927 ft 457 kts 64°
2026-04-23 02:50 -4.19985 109.89059 34928 ft 457 kts 64°
2026-04-23 02:51 -4.17237 109.94791 34930 ft 456 kts 64°
2026-04-23 02:51 -4.14505 110.00532 34928 ft 456 kts 64°
2026-04-23 02:52 -4.11775 110.06259 34928 ft 455 kts 64°
2026-04-23 02:52 -4.09041 110.11975 34925 ft 455 kts 64°
2026-04-23 02:53 -4.06305 110.17702 34926 ft 455 kts 64°
2026-04-23 02:53 -4.03591 110.23388 34925 ft 455 kts 64°
2026-04-23 02:54 -4.00860 110.29094 34927 ft 455 kts 64°
2026-04-23 02:54 -3.98119 110.34811 34928 ft 455 kts 64°
2026-04-23 02:55 -3.95499 110.40294 34926 ft 454 kts 64°
2026-04-23 02:55 -3.92771 110.46006 34927 ft 455 kts 64°
2026-04-23 02:56 -3.90039 110.51706 34925 ft 455 kts 64°
2026-04-23 02:56 -3.87312 110.57413 34928 ft 455 kts 64°
2026-04-23 02:57 -3.84561 110.63145 34928 ft 456 kts 64°
2026-04-23 02:57 -3.81831 110.68846 34930 ft 456 kts 64°
2026-04-23 02:58 -3.79097 110.74563 34934 ft 456 kts 64°
2026-04-23 02:58 -3.76342 110.80296 34934 ft 456 kts 64°
2026-04-23 02:59 -3.73595 110.86020 34934 ft 455 kts 64°
2026-04-23 02:59 -3.70858 110.91734 34934 ft 455 kts 64°
2026-04-23 03:00 -3.68124 110.97450 34936 ft 454 kts 64°
2026-04-23 03:00 -3.65390 111.03161 34934 ft 454 kts 64°
2026-04-23 03:01 -3.62672 111.08816 34935 ft 454 kts 64°
2026-04-23 03:01 -3.59929 111.14540 34940 ft 453 kts 64°
2026-04-23 03:02 -3.57183 111.20263 34937 ft 453 kts 64°
2026-04-23 03:02 -3.54455 111.25947 34932 ft 452 kts 64°
2026-04-23 03:03 -3.51733 111.31626 34931 ft 452 kts 64°
2026-04-23 03:03 -3.49008 111.37301 34928 ft 452 kts 64°
2026-04-23 03:04 -3.46282 111.42976 34925 ft 452 kts 64°
2026-04-23 03:04 -3.43574 111.48610 34922 ft 452 kts 64°
2026-04-23 03:05 -3.40846 111.54280 34919 ft 451 kts 64°
2026-04-23 03:05 -3.38131 111.59940 34920 ft 451 kts 64°
2026-04-23 03:06 -3.35406 111.65599 34922 ft 451 kts 64°
2026-04-23 03:06 -3.32688 111.71258 34924 ft 451 kts 64°
2026-04-23 03:07 -3.29970 111.76924 34924 ft 451 kts 64°
2026-04-23 03:07 -3.27254 111.82580 34925 ft 451 kts 64°
2026-04-23 03:08 -3.24549 111.88206 34927 ft 450 kts 64°
2026-04-23 03:08 -3.21827 111.93862 34926 ft 450 kts 64°
2026-04-23 03:09 -3.19106 111.99519 34927 ft 450 kts 64°
2026-04-23 03:09 -3.16405 112.05125 34924 ft 450 kts 64°
2026-04-23 03:10 -3.13692 112.10765 34930 ft 450 kts 64°
2026-04-23 03:10 -3.10974 112.16415 34927 ft 450 kts 64°
2026-04-23 03:11 -3.08265 112.22046 34926 ft 449 kts 64°
2026-04-23 03:11 -3.05547 112.27696 34927 ft 450 kts 64°
2026-04-23 03:12 -3.02905 112.33369 34924 ft 450 kts 67°
2026-04-23 03:12 -3.00592 112.39184 34926 ft 450 kts 69°
2026-04-23 03:13 -2.98390 112.45053 34929 ft 450 kts 69°
2026-04-23 03:13 -2.96154 112.50854 34926 ft 450 kts 69°
2026-04-23 03:14 -2.93842 112.56685 34925 ft 450 kts 68°
2026-04-23 03:14 -2.91527 112.62505 34928 ft 450 kts 69°
2026-04-23 03:15 -2.89222 112.68334 34926 ft 450 kts 69°
2026-04-23 03:15 -2.86915 112.74165 34927 ft 451 kts 69°
2026-04-23 03:16 -2.84605 112.79991 34925 ft 451 kts 69°
2026-04-23 03:16 -2.81132 112.88732 34923 ft 451 kts 69°
2026-04-23 03:17 -2.78841 112.94543 34921 ft 451 kts 69°
2026-04-23 03:17 -2.76626 113.00167 34925 ft 452 kts 69°
2026-04-23 03:18 -2.74335 113.05972 34924 ft 452 kts 69°
2026-04-23 03:18 -2.72023 113.11812 34925 ft 452 kts 69°
2026-04-23 03:19 -2.69707 113.17657 34924 ft 452 kts 69°
2026-04-23 03:19 -2.67389 113.23505 34922 ft 452 kts 69°
2026-04-23 03:20 -2.65071 113.29347 34921 ft 452 kts 69°
2026-04-23 03:20 -2.62750 113.35197 34916 ft 452 kts 69°
2026-04-23 03:21 -2.60294 113.40987 34917 ft 453 kts 61°
2026-04-23 03:21 -2.56887 113.46284 34909 ft 453 kts 57°
2026-04-23 03:22 -2.53421 113.51542 34909 ft 453 kts 57°
2026-04-23 03:22 -2.49950 113.56820 34908 ft 454 kts 57°
2026-04-23 03:23 -2.46492 113.62094 34909 ft 453 kts 57°
2026-04-23 03:23 -2.43024 113.67361 34909 ft 453 kts 57°
2026-04-23 03:24 -2.39559 113.72641 34909 ft 453 kts 58°
2026-04-23 03:24 -2.36101 113.77913 34909 ft 453 kts 57°
2026-04-23 03:25 -2.32632 113.83184 34912 ft 454 kts 57°
2026-04-23 03:25 -2.29165 113.88452 34913 ft 454 kts 57°
2026-04-23 03:26 -2.25696 113.93729 34914 ft 454 kts 58°
2026-04-23 03:26 -2.23337 113.98384 34916 ft 452 kts 67°
2026-04-23 03:27 -2.20396 114.05120 34911 ft 452 kts 67°
2026-04-23 03:27 -2.18292 114.09909 34910 ft 452 kts 67°
2026-04-23 03:28 -2.15755 114.15670 34908 ft 452 kts 67°
2026-04-23 03:28 -2.13232 114.21428 34907 ft 453 kts 67°
2026-04-23 03:29 -2.10704 114.27194 34906 ft 453 kts 67°
2026-04-23 03:29 -2.08167 114.32966 34908 ft 453 kts 67°
2026-04-23 03:30 -2.05632 114.38737 34907 ft 453 kts 67°
2026-04-23 03:30 -2.03093 114.44511 34907 ft 453 kts 67°
2026-04-23 03:31 -2.00559 114.50277 34910 ft 453 kts 67°
2026-04-23 03:31 -1.98020 114.56060 34908 ft 454 kts 67°
2026-04-23 03:32 -1.95477 114.61836 34911 ft 454 kts 66°
2026-04-23 03:32 -1.92926 114.67615 34914 ft 454 kts 66°
2026-04-23 03:33 -1.90388 114.73395 34914 ft 454 kts 67°
2026-04-23 03:33 -1.87844 114.79189 34917 ft 454 kts 67°
2026-04-23 03:34 -1.85308 114.84967 34920 ft 454 kts 67°
2026-04-23 03:34 -1.82769 114.90740 34925 ft 453 kts 67°
2026-04-23 03:35 -1.80229 114.96509 34926 ft 453 kts 67°
2026-04-23 03:35 -1.77700 115.02271 34923 ft 452 kts 67°
2026-04-23 03:36 -1.75171 115.08024 34921 ft 452 kts 67°
2026-04-23 03:36 -1.72638 115.13772 34924 ft 451 kts 67°
2026-04-23 03:37 -1.70110 115.19518 34922 ft 451 kts 67°
2026-04-23 03:37 -1.67601 115.25264 34921 ft 451 kts 68°
2026-04-23 03:38 -1.65212 115.31054 34923 ft 451 kts 69°
2026-04-23 03:38 -1.62871 115.36880 34924 ft 451 kts 69°
2026-04-23 03:39 -1.60517 115.42686 34921 ft 451 kts 68°
2026-04-23 03:39 -1.58135 115.48485 34922 ft 451 kts 68°
2026-04-23 03:40 -1.55737 115.54289 34921 ft 451 kts 68°
2026-04-23 03:40 -1.53354 115.60087 34916 ft 452 kts 68°
2026-04-23 03:41 -1.50975 115.65902 34913 ft 452 kts 68°
2026-04-23 03:41 -1.48593 115.71721 34917 ft 452 kts 68°
2026-04-23 03:42 -1.46192 115.77540 34918 ft 453 kts 68°
2026-04-23 03:42 -1.43804 115.83360 34917 ft 453 kts 68°
2026-04-23 03:43 -1.41410 115.89195 34921 ft 453 kts 68°
2026-04-23 03:43 -1.39014 115.95018 34922 ft 454 kts 68°
2026-04-23 03:44 -1.36612 116.00854 34927 ft 454 kts 68°
2026-04-23 03:44 -1.34213 116.06689 34932 ft 453 kts 68°
2026-04-23 03:45 -1.31821 116.12518 34929 ft 454 kts 68°
2026-04-23 03:45 -1.29424 116.18361 34928 ft 454 kts 68°
2026-04-23 03:46 -1.27027 116.24195 34930 ft 454 kts 68°
2026-04-23 03:46 -1.24624 116.30033 34927 ft 454 kts 68°
2026-04-23 03:47 -1.22221 116.35859 34923 ft 454 kts 68°
2026-04-23 03:47 -1.19822 116.41686 34922 ft 453 kts 68°
2026-04-23 03:48 -1.17428 116.47507 34920 ft 453 kts 68°
2026-04-23 03:48 -1.15035 116.53339 34918 ft 453 kts 68°
2026-04-23 03:49 -1.12641 116.59166 34914 ft 453 kts 68°
2026-04-23 03:49 -1.10243 116.65003 34910 ft 454 kts 68°
2026-04-23 03:50 -1.07860 116.70804 34902 ft 454 kts 68°
2026-04-23 03:50 -1.05456 116.76632 34897 ft 454 kts 68°
2026-04-23 03:51 -1.03053 116.82468 34897 ft 454 kts 68°
2026-04-23 03:51 -1.00653 116.88314 34894 ft 454 kts 68°
2026-04-23 03:52 -0.98249 116.94152 34895 ft 454 kts 68°
2026-04-23 03:52 -0.95839 116.99996 34895 ft 454 kts 68°
2026-04-23 03:53 -0.93442 117.05835 34892 ft 454 kts 68°
2026-04-23 03:53 -0.91047 117.11670 34897 ft 454 kts 68°
2026-04-23 03:54 -0.88650 117.17509 34898 ft 454 kts 68°
2026-04-23 03:54 -0.86249 117.23344 34896 ft 454 kts 68°
2026-04-23 03:55 -0.83854 117.29182 34897 ft 454 kts 68°
2026-04-23 03:55 -0.81460 117.35029 34903 ft 454 kts 68°
2026-04-23 03:56 -0.79065 117.40861 34905 ft 454 kts 68°
2026-04-23 03:56 -0.76661 117.46692 34906 ft 454 kts 68°
2026-04-23 03:57 -0.74408 117.52570 34904 ft 453 kts 78°
2026-04-23 03:57 -0.73776 117.58818 34901 ft 453 kts 85°
2026-04-23 03:58 -0.73331 117.65112 34901 ft 453 kts 85°
2026-04-23 03:58 -0.72890 117.71396 34904 ft 454 kts 85°
2026-04-23 03:59 -0.72432 117.77681 34911 ft 454 kts 85°
2026-04-23 03:59 -0.71966 117.83971 34910 ft 454 kts 85°
2026-04-23 04:00 -0.71503 117.90259 34908 ft 454 kts 85°
2026-04-23 04:00 -0.71046 117.96556 34909 ft 454 kts 85°
2026-04-23 04:01 -0.70585 118.02850 34913 ft 455 kts 85°
2026-04-23 04:01 -0.70118 118.09153 34916 ft 455 kts 85°
2026-04-23 04:02 -0.69661 118.15421 34915 ft 455 kts 85°
2026-04-23 04:02 -0.69205 118.21722 34915 ft 455 kts 85°
2026-04-23 04:03 -0.68749 118.28024 34915 ft 455 kts 85°
2026-04-23 04:03 -0.68285 118.34331 34918 ft 455 kts 85°
2026-04-23 04:04 -0.67825 118.40633 34918 ft 455 kts 85°
2026-04-23 04:04 -0.67364 118.46943 34919 ft 455 kts 85°
2026-04-23 04:05 -0.67137 118.50097 34356 ft 457 kts 85°
2026-04-23 04:05 -0.66906 118.53306 33202 ft 467 kts 85°
2026-04-23 04:05 -0.66671 118.56545 32272 ft 468 kts 85°
2026-04-23 04:05 -0.66432 118.59794 31330 ft 470 kts 85°
2026-04-23 04:06 -0.66188 118.63064 30372 ft 472 kts 85°
2026-04-23 04:06 -0.65941 118.66345 29168 ft 476 kts 85°
2026-04-23 04:06 -0.65697 118.69647 28154 ft 475 kts 85°
2026-04-23 04:06 -0.65539 118.71804 27810 ft 468 kts 85°
2026-04-23 04:07 -0.65302 118.75028 27122 ft 462 kts 86°
2026-04-23 04:07 -0.65072 118.78212 26426 ft 457 kts 86°
2026-04-23 04:07 -0.64847 118.81353 25742 ft 452 kts 86°
2026-04-23 04:07 -0.64622 118.84476 25074 ft 448 kts 86°
2026-04-23 04:08 -0.64394 118.87574 24402 ft 445 kts 86°
2026-04-23 04:08 -0.64164 118.90643 23738 ft 442 kts 85°
2026-04-23 04:08 -0.63936 118.93692 23007 ft 439 kts 85°
2026-04-23 04:08 -0.63711 118.96724 22346 ft 433 kts 85°
2026-04-23 04:09 -0.63492 118.99706 21712 ft 428 kts 85°
2026-04-23 04:09 -0.63278 119.02647 21099 ft 423 kts 86°
2026-04-23 04:09 -0.63065 119.05570 20485 ft 418 kts 85°
2026-04-23 04:09 -0.62855 119.08445 19919 ft 414 kts 85°
2026-04-23 04:10 -0.62646 119.11315 19358 ft 411 kts 85°
2026-04-23 04:10 -0.62441 119.14152 18804 ft 409 kts 86°
2026-04-23 04:10 -0.62238 119.16973 18260 ft 407 kts 85°
2026-04-23 04:10 -0.62031 119.19785 17661 ft 405 kts 85°
2026-04-23 04:11 -0.61821 119.22580 17108 ft 401 kts 85°
2026-04-23 04:11 -0.61614 119.25344 16546 ft 398 kts 85°
2026-04-23 04:11 -0.61411 119.28097 15969 ft 395 kts 85°
2026-04-23 04:11 -0.61213 119.30828 15390 ft 393 kts 86°
2026-04-23 04:12 -0.61019 119.33529 14809 ft 390 kts 86°
2026-04-23 04:12 -0.60824 119.36234 14206 ft 388 kts 86°
2026-04-23 04:12 -0.60629 119.38915 13596 ft 386 kts 85°
2026-04-23 04:12 -0.60431 119.41583 12942 ft 383 kts 85°
2026-04-23 04:13 -0.60237 119.44207 12417 ft 376 kts 85°
2026-04-23 04:13 -0.60050 119.46762 11868 ft 371 kts 86°
2026-04-23 04:13 -0.59864 119.49319 11279 ft 367 kts 86°
2026-04-23 04:13 -0.59680 119.51851 10772 ft 361 kts 86°
2026-04-23 04:14 -0.59499 119.54321 10644 ft 345 kts 85°
2026-04-23 04:14 -0.59326 119.56664 10526 ft 330 kts 85°
2026-04-23 04:14 -0.59160 119.58902 10411 ft 317 kts 86°
2026-04-23 04:14 -0.59000 119.61062 10296 ft 305 kts 86°
2026-04-23 04:15 -0.58848 119.63139 10176 ft 295 kts 86°
2026-04-23 04:15 -0.58700 119.65161 9974 ft 289 kts 86°
2026-04-23 04:15 -0.58412 119.69100 9484 ft 274 kts 86°
2026-04-23 04:16 -0.58277 119.70937 9355 ft 260 kts 86°
2026-04-23 04:16 -0.58194 119.72059 9260 ft 257 kts 86°
2026-04-23 04:16 -0.58064 119.73848 8591 ft 260 kts 86°
2026-04-23 04:17 -0.57934 119.75647 8115 ft 256 kts 87°
2026-04-23 04:17 -0.58110 119.77295 7826 ft 244 kts 111°
2026-04-23 04:17 -0.58983 119.78645 7738 ft 232 kts 136°
2026-04-23 04:17 -0.60381 119.79501 7691 ft 235 kts 159°
2026-04-23 04:18 -0.61972 119.79781 7643 ft 238 kts 179°
2026-04-23 04:18 -0.63630 119.79498 7591 ft 241 kts 198°
2026-04-23 04:18 -0.65100 119.78681 7536 ft 244 kts 218°
2026-04-23 04:18 -0.66224 119.77410 7489 ft 246 kts 238°
2026-04-23 04:19 -0.66859 119.75825 7437 ft 247 kts 259°
2026-04-23 04:19 -0.66913 119.74116 7383 ft 247 kts 280°
2026-04-23 04:19 -0.66388 119.72496 7331 ft 246 kts 300°
2026-04-23 04:19 -0.65358 119.71152 7277 ft 244 kts 321°
2026-04-23 04:20 -0.63968 119.70216 7224 ft 236 kts 334°
2026-04-23 04:20 -0.62550 119.69519 7175 ft 226 kts 338°
2026-04-23 04:20 -0.61128 119.68886 7123 ft 223 kts 339°
2026-04-23 04:20 -0.59687 119.68347 7075 ft 220 kts 352°
2026-04-23 04:21 -0.58183 119.68292 7028 ft 215 kts 13°
2026-04-23 04:21 -0.56787 119.68784 6987 ft 212 kts 34°
2026-04-23 04:21 -0.55700 119.69739 6942 ft 208 kts 56°
2026-04-23 04:21 -0.55050 119.71012 6893 ft 206 kts 76°
2026-04-23 04:22 -0.54916 119.72428 6857 ft 205 kts 96°
2026-04-23 04:22 -0.55303 119.73791 6814 ft 206 kts 117°
2026-04-23 04:22 -0.56169 119.74930 6776 ft 208 kts 137°
2026-04-23 04:22 -0.57392 119.75713 6734 ft 210 kts 151°
2026-04-23 04:23 -0.58715 119.76340 6696 ft 211 kts 154°
2026-04-23 04:23 -0.60063 119.76927 6651 ft 211 kts 154°
2026-04-23 04:23 -0.61411 119.77504 6604 ft 211 kts 154°
2026-04-23 04:23 -0.62783 119.78095 6564 ft 219 kts 154°
2026-04-23 04:24 -0.64193 119.78704 6456 ft 221 kts 154°
2026-04-23 04:24 -0.65589 119.79312 6228 ft 217 kts 154°
2026-04-23 04:24 -0.66961 119.79913 5885 ft 213 kts 154°
2026-04-23 04:24 -0.68287 119.80497 5565 ft 202 kts 154°
2026-04-23 04:25 -0.69525 119.81043 5281 ft 193 kts 154°
2026-04-23 04:25 -0.70738 119.81580 4998 ft 185 kts 154°
2026-04-23 04:25 -0.71867 119.82080 4730 ft 174 kts 154°
2026-04-23 04:25 -0.72933 119.82552 4498 ft 158 kts 153°
2026-04-23 04:26 -0.73901 119.82981 4263 ft 149 kts 153°
2026-04-23 04:26 -0.74841 119.83400 4044 ft 148 kts 154°
2026-04-23 04:26 -0.75782 119.83818 3828 ft 148 kts 154°
2026-04-23 04:26 -0.76415 119.84100 3682 ft 148 kts 154°
2026-04-23 04:28 -0.76904 119.84342 3625 ft 145 kts 146°
2026-04-23 04:28 -0.77824 119.84811 3410 ft 149 kts 154°
2026-04-23 04:28 -0.78766 119.85223 3161 ft 148 kts 155°
2026-04-23 04:28 -0.79712 119.85629 2923 ft 148 kts 155°
2026-04-23 04:29 -0.80655 119.86035 2696 ft 148 kts 155°
2026-04-23 04:29 -0.81604 119.86446 2468 ft 148 kts 155°
2026-04-23 04:29 -0.82552 119.86858 2257 ft 148 kts 155°
2026-04-23 04:29 -0.83497 119.87270 2037 ft 149 kts 156°
2026-04-23 04:30 -0.84447 119.87688 1825 ft 149 kts 156°
2026-04-23 04:30 -0.85402 119.88107 1608 ft 151 kts 156°
2026-04-23 04:30 -0.86363 119.88531 1369 ft 151 kts 156°
2026-04-23 04:30 -0.87322 119.88954 1140 ft 150 kts 156°
2026-04-23 04:31 -0.88270 119.89373 919 ft 148 kts 156°
2026-04-23 04:31 -0.89214 119.89785 668 ft 147 kts 157°
2026-04-23 04:31 -0.90150 119.90192 432 ft 146 kts 155°
2026-04-23 04:31 -0.91064 119.90608 239 ft 136 kts 155°
2026-04-23 04:32 -0.91787 119.90935 245 ft 78 kts 156°
2026-04-23 04:32 -0.92037 119.91048 244 ft 18 kts 158°
2026-04-23 04:32 -0.92095 119.91065 237 ft 2 kts 77°
2026-04-23 04:32 -0.92080 119.91065 241 ft 2 kts 352°
2026-04-23 04:33 -0.92045 119.91052 245 ft 8 kts 337°
2026-04-23 04:33 -0.91977 119.91022 243 ft 13 kts 336°
2026-04-23 04:33 -0.91891 119.90983 244 ft 14 kts 333°
2026-04-23 04:33 -0.91885 119.90903 243 ft 10 kts 246°
2026-04-23 04:34 -0.91915 119.90834 240 ft 5 kts 247°
2026-04-23 04:34 -0.91896 119.90799 239 ft 7 kts 326°
2026-04-23 04:34 -0.91842 119.90774 244 ft 10 kts 336°
2026-04-23 04:34 -0.91830 119.90753 244 ft 0 kts 261°
2026-04-23 04:35 -0.91835 119.90745 244 ft 2 kts 238°
2026-04-23 04:35 -0.91846 119.90723 245 ft 0 kts 248°